Waarnemingen

Advertentie
Mijn weer
Pertusato, Frankrijk (7770): temperatuur & dauwpunt: 19.11.2017 02:00:00 - 25.11.2017 02:00:00 (CET)Pertusato, Frankrijk (7770): windsnelheid & windstoten: 19.11.2017 02:00:00 - 25.11.2017 02:00:00 (CET)Pertusato, Frankrijk (7770): windrichting: 19.11.2017 02:00:00 - 25.11.2017 02:00:00 (CET)Pertusato, Frankrijk (7770): luchtdruk: 19.11.2017 02:00:00 - 25.11.2017 02:00:00 (CET)Pertusato, Frankrijk (7770): zicht: 19.11.2017 02:00:00 - 25.11.2017 02:00:00 (CET)Pertusato, Frankrijk (7770): neerslag: 19.11.2017 02:00:00 - 25.11.2017 02:00:00 (CET)
Datum & Tijd tt [°C] td [°C] ff [km/u] ff [kn] fx [km/u] fx [kn] dd ppp [hPa] vv [km] rr [mm]
25.11.2017 02:00:00 14,9 12,8 6 4 20 11 WZW 1019,8 - 0,0
25.11.2017 01:00:00 14,8 12,8 11 6 26 14 ZZW 1020,1 - 0,0
25.11.2017 00:00:00 15,0 12,9 16 9 23 12 W 1020,7 - 0,0
24.11.2017 23:00:00 14,7 12,7 12 7 19 10 W 1021,0 - 0,0
24.11.2017 22:00:00 14,4 12,3 15 8 21 11 W 1021,3 - 0,0
24.11.2017 21:00:00 14,5 12,4 12 7 19 10 W 1021,4 - 0,0
24.11.2017 20:00:00 15,0 12,1 6 3 21 12 NW 1021,2 - 0,0
24.11.2017 19:00:00 15,0 12,1 13 7 26 14 W 1020,9 18 0,0
24.11.2017 18:00:00 14,8 12,1 19 10 33 18 W 1020,9 - 0,0
24.11.2017 17:00:00 14,8 11,8 22 12 33 18 W 1020,9 - 0,0
24.11.2017 16:00:00 15,2 12,0 25 13 38 20 W 1020,8 18 0,0
24.11.2017 15:00:00 15,6 11,8 21 12 37 20 W 1020,7 - 0,0
24.11.2017 14:00:00 15,5 12,1 13 7 31 17 WNW 1020,7 - 0,0
24.11.2017 13:00:00 16,0 12,0 11 6 27 15 NNW 1021,2 18 0,0
24.11.2017 12:00:00 15,8 12,0 9 5 27 15 NW 1021,7 - 0,0
24.11.2017 11:00:00 15,5 11,9 9 5 22 12 WNW 1022,4 - 0,0
24.11.2017 10:00:00 15,0 11,6 9 5 19 10 W 1022,6 - 0,0
24.11.2017 09:00:00 14,8 12,1 3 2 16 9 NW 1022,1 - 0,0
24.11.2017 08:00:00 13,8 11,8 7 4 19 10 NW 1021,9 - 0,0
24.11.2017 07:00:00 13,7 12,4 8 5 18 10 W 1021,9 18 0,0
24.11.2017 06:00:00 14,0 12,6 6 3 18 10 N 1021,4 - 0,0
24.11.2017 05:00:00 14,0 12,9 8 4 20 11 NW 1021,3 - 0,0
24.11.2017 04:00:00 14,1 13,0 9 5 17 9 W 1021,1 - 0,0
24.11.2017 03:00:00 13,7 12,8 5 3 18 10 N 1021,2 - 0,0
24.11.2017 02:00:00 13,7 12,9 6 4 10 5 WZW 1021,4 - 0,0
24.11.2017 01:00:00 13,3 12,5 4 2 7 4 ZW 1021,2 - 0,0
24.11.2017 00:00:00 13,3 12,4 4 2 9 5 WZW 1021,3 - 0,2
23.11.2017 23:00:00 12,5 11,4 4 2 8 5 ONO 1021,4 - 0,0
23.11.2017 22:00:00 12,6 11,5 5 3 11 6 NNO 1021,4 - 0,0
23.11.2017 21:00:00 12,2 11,1 9 5 12 6 ONO 1021,4 - 0,0
23.11.2017 20:00:00 12,6 11,5 9 5 14 8 NNO 1021,2 - 0,0
23.11.2017 19:00:00 12,9 11,8 11 6 14 8 NO 1020,7 20 0,0
23.11.2017 18:00:00 13,5 12,1 12 7 17 9 NO 1020,5 - 0,0
23.11.2017 17:00:00 14,1 11,4 11 6 18 10 ONO 1020,0 - 0,0
23.11.2017 16:00:00 16,4 12,2 13 7 23 12 ONO 1019,8 - 0,0
23.11.2017 15:00:00 17,0 12,3 14 8 25 14 ONO 1019,4 - 0,0
23.11.2017 14:00:00 18,5 12,3 13 7 25 14 ONO 1019,4 - 0,0
23.11.2017 13:00:00 18,6 12,1 12 6 24 13 ONO 1019,5 - 0,0
23.11.2017 12:00:00 18,4 12,4 15 8 32 17 ONO 1019,8 - 0,0
23.11.2017 11:00:00 17,7 11,9 16 9 26 14 ONO 1020,1 - 0,0
23.11.2017 10:00:00 17,0 12,3 16 8 26 14 ONO 1020,3 20 0,0
23.11.2017 09:00:00 15,1 12,6 14 7 24 13 ONO 1020,1 - 0,0
23.11.2017 08:00:00 13,4 12,0 16 8 26 14 ONO 1019,7 - 0,0
23.11.2017 07:00:00 12,7 11,4 16 9 28 15 NO 1019,1 20 0,0
23.11.2017 06:00:00 12,7 11,3 19 10 31 17 NO 1018,7 - 0,2
23.11.2017 05:00:00 12,8 11,4 20 11 32 17 NO 1018,6 - 0,0
23.11.2017 04:00:00 12,5 10,9 22 12 38 20 NO 1018,6 16 0,0
23.11.2017 03:00:00 12,6 11,0 24 13 35 19 NO 1018,7 - 0,0
23.11.2017 02:00:00 12,6 11,2 22 12 34 18 NO 1019,0 - 0,0
23.11.2017 01:00:00 12,7 11,3 24 13 36 19 NO 1019,0 - 0,0
23.11.2017 00:00:00 12,7 10,9 23 12 34 19 NO 1019,7 - 0,0
22.11.2017 23:00:00 12,5 11,1 21 12 29 16 NO 1019,3 - 0,0
22.11.2017 22:00:00 11,8 10,7 19 11 26 14 NO 1019,3 - 0,0
22.11.2017 21:00:00 11,0 9,7 17 9 21 11 NO 1019,5 - 0,0
22.11.2017 20:00:00 11,6 10,2 13 7 18 10 NO 1019,6 - 0,0
22.11.2017 19:00:00 12,0 10,6 13 7 18 10 NO 1019,6 18 0,0
22.11.2017 18:00:00 12,4 10,8 10 5 12 6 ONO 1019,3 - 0,0
22.11.2017 17:00:00 13,7 11,2 9 5 12 6 O 1019,3 - 0,0
22.11.2017 16:00:00 16,5 11,6 8 5 15 8 ONO 1018,9 18 0,0
22.11.2017 15:00:00 17,2 12,3 8 4 12 6 W 1019,0 - 0,0
22.11.2017 14:00:00 17,5 12,4 7 4 13 7 WNW 1019,2 - 0,0
22.11.2017 13:00:00 17,5 12,0 6 3 10 5 WNW 1019,7 - 0,0
22.11.2017 12:00:00 17,3 11,6 6 3 13 7 W 1020,1 - 0,0
22.11.2017 11:00:00 16,4 11,1 10 5 19 10 W 1020,5 - 0,0
22.11.2017 10:00:00 15,9 11,1 12 7 18 10 W 1020,2 - 0,0
22.11.2017 09:00:00 14,6 11,0 11 6 22 12 WNW 1020,4 - 0,0
22.11.2017 08:00:00 13,2 10,9 19 10 25 14 WNW 1020,0 - 0,0
22.11.2017 07:00:00 12,8 10,7 18 10 29 15 W 1019,6 16 0,0
22.11.2017 06:00:00 13,3 11,0 21 11 37 20 W 1019,3 - 0,0
22.11.2017 05:00:00 13,7 11,0 28 15 38 21 W 1019,1 - 0,0
22.11.2017 04:00:00 13,5 11,2 23 13 44 24 W 1019,4 16 0,0
22.11.2017 03:00:00 14,4 11,2 27 15 51 28 W 1019,4 - 0,0
22.11.2017 02:00:00 14,3 10,9 22 12 43 23 W 1019,4 - 0,0
22.11.2017 01:00:00 14,2 10,6 18 10 43 23 WNW 1019,3 - 0,0
22.11.2017 00:00:00 14,3 10,3 22 12 38 21 W 1019,7 - 0,0
21.11.2017 23:00:00 14,5 10,7 23 12 41 22 W 1019,7 - 0,0
21.11.2017 22:00:00 14,1 10,9 20 11 33 18 W 1019,7 - 0,0
21.11.2017 21:00:00 14,2 10,8 13 7 35 19 W 1019,7 - 0,0
21.11.2017 20:00:00 14,2 11,0 21 12 34 18 W 1019,7 - 0,0
21.11.2017 19:00:00 14,3 11,1 20 11 30 16 W 1019,8 14 0,0
21.11.2017 18:00:00 14,4 11,0 20 11 33 18 W 1019,3 - 0,0
21.11.2017 17:00:00 14,8 11,0 21 12 39 21 WNW 1018,9 - 0,0
21.11.2017 16:00:00 15,8 11,4 26 14 40 22 W 1018,8 14 0,0
21.11.2017 15:00:00 16,1 11,3 30 16 46 25 W 1018,2 - 0,0
21.11.2017 14:00:00 16,5 11,0 37 20 60 33 W 1018,0 - 0,0
21.11.2017 13:00:00 16,4 11,5 27 14 59 32 W 1018,2 - 0,0
21.11.2017 12:00:00 16,0 12,2 19 10 57 31 WNW 1018,8 - 0,0
21.11.2017 11:00:00 15,4 12,2 18 10 49 26 NW 1019,0 - 0,0
21.11.2017 10:00:00 14,7 11,5 16 9 46 25 NNW 1019,1 18 0,0
21.11.2017 09:00:00 14,4 11,0 13 7 44 24 NNO 1019,3 - 0,0
21.11.2017 08:00:00 14,2 8,8 30 16 51 28 W 1019,5 - 0,0
21.11.2017 07:00:00 13,8 9,0 23 12 55 30 W 1018,7 21 0,0
21.11.2017 06:00:00 14,1 9,3 32 17 58 32 W 1018,5 - 0,0
21.11.2017 05:00:00 14,0 10,0 24 13 55 30 WNW 1018,3 - 0,0
21.11.2017 04:00:00 14,2 10,0 32 17 54 29 W 1018,5 - 0,0
21.11.2017 03:00:00 14,3 10,3 26 14 51 28 WNW 1018,8 - 0,0
21.11.2017 02:00:00 14,2 10,2 24 13 34 19 W 1019,5 - 0,0
21.11.2017 01:00:00 14,2 10,4 26 14 42 23 WNW 1019,7 - 0,0
21.11.2017 00:00:00 14,2 10,2 13 7 48 26 NNW 1019,5 - 0,0
20.11.2017 23:00:00 13,9 9,3 12 7 40 21 NNO 1019,6 - 0,0
20.11.2017 22:00:00 13,7 9,3 13 7 50 27 NO 1019,8 - 0,0
20.11.2017 21:00:00 13,6 9,2 15 8 43 23 N 1019,8 - 0,0
20.11.2017 20:00:00 13,7 8,9 14 8 53 29 ZW 1019,5 - 0,0
20.11.2017 19:00:00 13,9 9,5 15 8 39 21 ZZO 1019,3 - 0,0
20.11.2017 18:00:00 14,1 8,5 10 5 31 17 NNW 1019,5 - 0,0
20.11.2017 17:00:00 14,4 9,4 10 6 28 15 NNW 1019,3 - 0,0
20.11.2017 16:00:00 15,0 10,0 10 5 26 14 NW 1019,2 - 0,0
20.11.2017 15:00:00 15,5 10,9 6 3 20 11 N 1019,6 - 0,0
20.11.2017 14:00:00 16,0 9,0 3 2 21 11 Z 1019,6 - 0,0
20.11.2017 13:00:00 16,4 9,3 7 4 16 9 OZO 1020,1 18 0,0
20.11.2017 12:00:00 15,7 8,9 9 5 19 10 OZO 1020,5 - 0,0
20.11.2017 11:00:00 16,0 9,9 9 5 18 10 Z 1020,9 - 0,0
20.11.2017 10:00:00 15,3 10,5 10 5 16 8 ZO 1020,6 - 0,0
20.11.2017 09:00:00 14,4 10,4 8 4 11 6 O 1020,4 - 0,0
20.11.2017 08:00:00 12,2 9,9 10 5 11 6 OZO 1019,9 - 0,0
20.11.2017 07:00:00 12,5 9,1 6 3 13 7 ZZO 1019,3 17 0,0
20.11.2017 06:00:00 13,0 9,6 4 2 22 12 W 1018,6 - 0,0
20.11.2017 05:00:00 13,3 9,7 6 3 19 10 W 1018,1 - 0,0
20.11.2017 04:00:00 13,5 10,5 7 4 23 12 ZW 1017,7 15 0,0
20.11.2017 03:00:00 13,6 9,4 6 3 23 13 NW 1017,6 - 0,0
20.11.2017 02:00:00 13,7 9,9 7 4 24 13 N 1017,7 - 0,0
20.11.2017 01:00:00 13,7 10,3 8 4 28 15 NNO 1017,3 - 0,0
20.11.2017 00:00:00 13,8 9,6 8 4 23 12 NW 1017,3 - 0,0
19.11.2017 23:00:00 14,0 9,0 9 5 21 12 NW 1017,0 - 0,0
19.11.2017 22:00:00 13,7 8,7 9 5 23 12 WNW 1016,4 - 0,0
19.11.2017 21:00:00 12,2 9,0 9 5 14 7 W 1016,1 - 0,0
19.11.2017 20:00:00 12,2 8,7 11 6 24 13 WNW 1015,4 - 0,0
19.11.2017 19:00:00 12,5 8,6 18 10 40 22 WNW 1015,1 18 0,0
19.11.2017 18:00:00 13,3 8,6 35 19 54 29 W 1013,8 - 0,0
19.11.2017 17:00:00 13,3 8,4 27 15 57 31 W 1012,5 - 0,0
19.11.2017 16:00:00 13,7 8,7 39 21 61 33 W 1012,7 20 0,0
19.11.2017 15:00:00 13,8 7,6 35 19 67 36 W 1012,5 - 0,0
19.11.2017 14:00:00 14,2 8,4 32 18 71 38 W 1012,8 - 0,0
19.11.2017 13:00:00 13,4 7,8 37 20 69 37 W 1013,2 20 0,0
19.11.2017 12:00:00 13,2 7,4 40 22 67 36 W 1014,0 - 0,0
19.11.2017 11:00:00 13,6 8,2 23 12 56 30 W 1014,1 - 0,0
19.11.2017 10:00:00 14,5 10,3 24 13 61 33 WNW 1014,8 20 0,0
19.11.2017 09:00:00 14,1 10,1 25 13 41 22 W 1015,4 - 0,0
19.11.2017 08:00:00 13,9 11,2 24 13 34 19 W 1015,2 - 0,0
19.11.2017 07:00:00 13,4 11,1 22 12 37 20 W 1015,2 - 0,0
19.11.2017 06:00:00 12,9 10,6 18 10 27 15 WNW 1015,5 - 0,0
19.11.2017 05:00:00 13,3 10,5 21 11 27 15 WNW 1015,6 - 0,0
19.11.2017 04:00:00 14,6 11,7 8 4 36 19 N 1015,6 15 0,0
19.11.2017 03:00:00 14,3 10,5 9 5 24 13 NNW 1016,0 - 0,0
19.11.2017 02:00:00 14,0 10,6 6 3 19 10 NNO 1016,3 - 0,0

tt = temperatuur
td = dauwpunt
ff = windsnelheid
fx = windstoten
dd = windrichting
ppp = luchtdruk
vv = zicht
rr = neerslag

Weerstations in de omgeving